Location: Nairn
(57.5833°N, 3.8667°W)
Time: 01:30:00
(UTC+00:00)

Lacrosse 4 Rocket - Pass Details

Date: 07 August 2020
Orbit: 544 x 615 km, 68.0° (Epoch: 19 September)

Event Time Altitude Azimuth Distance (km) Brightness Sun altitude
Exits shadow 03:25:32 - 269° (W) 2,797 4.5 -6.9°
Rises 03:25:33 0° 269° (W) 2,795 4.5 -6.9°
Reaches altitude 10° 03:28:06 10° 282° (WNW) 1,884 3.7 -6.7°
Maximum altitude 03:31:38 25° 339° (NNW) 1,154 3.3 -6.3°
Drops below altitude 10° 03:35:08 10° 37° (NE) 1,855 5.8 -6.0°
Sets 03:37:38 0° 50° (NE) 2,741 7.7 -5.7°
